Flag for Germany Weather past 2 weeks in Hamburg, Hamburg, Germany

Now
50 °F

Clear.


Feels Like: 48 °F
Forecast: 49 / 58 °F
Wind: 6 mph from South

Location: Hamburg-Fuhlsbuettel

Current Time: Apr 25, 2015 at 4:15:09 AM

Latest Report: Apr 25, 2015 at 3:50 AM


Visibility: 10 mi

Pressure: 29.71 "Hg

Humidity: 76%

Dew point: 43 °F

Location of HamburgLocation

Historic Weather in Hamburg — Graph

°F

Hamburg temperature yesterday

Maximum temperature yesterday: 64 °F (at 3:50 PM)
Minimum temperature yesterday: 45 °F (at 1:50 AM)
Average temperature yesterday: 53 °F

Past Weeks' High & Low Weather Summary

 TemperatureHumidityPressure
High70 °F (Apr 15, 3:20 PM)100% (Apr 14, 3:50 AM)30.39 "Hg (Apr 14, 3:50 AM)
Low30 °F (Apr 18, 5:50 AM)32% (Apr 20, 3:20 PM)29.74 "Hg (Apr 25, 1:20 AM)
Average50 °F70%30.14 "Hg
* Reported Apr 10 2:20 AM — Apr 25 2:50 AM, Hamburg, Weather by CustomWeather, © 2015

Note: Actual official high and low records may vary slightly from our data, if they occured in-between our weather recording intervals... More about our weather records

Advertising

Hamburg weather history for previous 24 hours

 ConditionsComfort  
Time TempWeatherWind HumidityBarometerVisibility
2:50 AM
Sat, Apr 25
48 °FClear.2 mph76%29.74 "Hg10 mi
2:20 AM48 °FClear.2 mph82%29.74 "Hg10 mi
1:50 AM46 °FPassing clouds.3 mph82%29.74 "HgN/A
1:20 AM48 °FPassing clouds.5 mph76%29.74 "HgN/A
12:50 AM48 °FPassing clouds.3 mph76%29.77 "HgN/A
12:20 AM50 °FClear.No wind71%29.77 "Hg10 mi
11:50 PM
Fri, Apr 24
54 °FPassing clouds.6 mph63%29.77 "HgN/A
11:20 PM50 °FClear.5 mph71%29.77 "Hg10 mi
10:50 PM52 °FClear.3 mph67%29.77 "Hg10 mi
10:20 PM52 °FPassing clouds.3 mph67%29.77 "HgN/A
9:50 PM54 °FClear.2 mph63%29.77 "Hg10 mi
9:20 PM55 °FClear.3 mph59%29.77 "Hg5 mi
8:50 PM59 °FClear.5 mph48%29.77 "Hg5 mi
8:20 PM61 °FSunny.6 mph45%29.80 "Hg10 mi
7:50 PM63 °FSunny.7 mph42%29.77 "Hg10 mi
7:20 PM63 °FPassing clouds.7 mph42%29.80 "HgN/A
6:50 PM64 °FPassing clouds.7 mph43%29.80 "HgN/A
6:20 PM64 °FPassing clouds.8 mph43%29.80 "HgN/A
5:50 PM64 °FPassing clouds.6 mph43%29.80 "HgN/A
5:20 PM64 °FPassing clouds.8 mph43%29.80 "HgN/A
4:50 PM63 °FPassing clouds.13 mph45%29.83 "HgN/A
4:20 PM64 °FSunny.8 mph46%29.83 "Hg10 mi
3:50 PM64 °FPassing clouds.10 mph40%29.83 "HgN/A
3:20 PM63 °FPassing clouds.10 mph45%29.83 "HgN/A
2:50 PM63 °FPartly sunny.12 mph52%29.86 "HgN/A
2:20 PM63 °FPartly sunny.13 mph52%29.86 "HgN/A
1:50 PM61 °FPartly sunny.9 mph59%29.86 "HgN/A
1:20 PM59 °FPartly sunny.9 mph59%29.86 "HgN/A
12:50 PM59 °FPartly sunny.8 mph63%29.89 "HgN/A
12:20 PM57 °FPartly sunny.7 mph72%29.89 "HgN/A
11:50 AM55 °FPassing clouds.5 mph72%29.89 "HgN/A
11:20 AM54 °FScattered clouds.6 mph72%29.92 "Hg6 mi
10:50 AM52 °FScattered clouds.5 mph82%29.92 "Hg4 mi
10:20 AM50 °FPartly sunny.6 mph82%29.92 "Hg4 mi
9:50 AM50 °FPartly sunny.5 mph88%29.92 "Hg4 mi
9:20 AM48 °FPartly sunny.3 mph94%29.92 "Hg4 mi
8:50 AM46 °FPartly sunny.6 mph93%29.92 "Hg4 mi
8:20 AM46 °FPartly sunny.5 mph93%29.95 "Hg4 mi
7:50 AM45 °FPartly sunny.3 mph100%29.95 "Hg4 mi
7:20 AM45 °FPartly sunny.5 mph100%29.95 "Hg4 mi
6:50 AM45 °FPassing clouds.6 mph100%29.95 "Hg4 mi
6:20 AM45 °FDrizzle. Fog.6 mph100%29.95 "Hg2 mi
5:50 AM45 °FDrizzle. Fog.5 mph100%29.95 "Hg2 mi
5:20 AM45 °FFog.3 mph100%29.95 "Hg1 mi
4:50 AM45 °FFog.5 mph100%29.95 "Hg1 mi
4:20 AM45 °FFog.7 mph93%29.95 "Hg1 mi
Weather by CustomWeather, © 2015

See weather overviewHow to use our weather pages